Weather History for Monroe, MI

Change the Weather History Date:

Saturday, November 3, 2012

  Actual Average Record
Temperature  
Mean Temperature 39 °F -  
Max Temperature 48 °F 54 °F 77 °F (1938)
Min Temperature 30 °F 38 °F 16 °F (1951)
Degree Days  
Heating Degree Days 26    
Moisture  
Dew Point 30 °F    
Average Humidity 71    
Maximum Humidity 93    
Minimum Humidity 50    
Precipitation  
Precipitation 0.00 in - - ()
Sea Level Pressure  
Sea Level Pressure 30.13 in    
Wind  
Wind Speed 6 mph (NNW)    
Max Wind Speed 9 mph    
Max Gust Speed -    
Visibility 10 miles    
Events      
Averages and records for this station are not official NWS values.
T = Trace of Precipitation, MM = Missing Value Source: NWS Daily Summary

Daily Weather History Graph

Daily Weather History Graph

Search for Another Location

Airport:

Trip Planner

Search our weather history database for the weather conditions in past years. The results will help you decide how hot, cold, wet, or windy it might be!

Date:

Astronomy

Nov. 03, 2012 Rise Set
Actual Time 8:09 AM EDT 6:24 PM EDT
Civil Twilight 7:40 AM EDT 6:53 PM EDT
Nautical Twilight 7:07 AM EDT 7:26 PM EDT
Astronomical Twilight 6:34 AM EDT 7:59 PM EDT
Moon 10:03 PM EDT (11/3) 12:14 PM EDT (11/3)
Length of Visible Light 11h 13m
Length of Day
10h 15m
Waning Gibbous, 80% of the Moon is Illuminated
Nov 3
Waning Gibbous
Nov 6
Last Quarter
Nov 13
New
Nov 20
First Quarter
Nov 28
Full

Hourly Weather History & Observations

Time (EDT) Temp. Windchill Dew Point Humidity Pressure Visibility Wind Dir Wind Speed Gust Speed Precip Events Conditions
12:12 AM 42.8 °F 37.5 °F 30.2 °F 61% 30.06 in 10.0 mi NNW 9.2 mph - N/A   Overcast
12:32 AM 42.8 °F 40.1 °F 30.2 °F 61% 30.06 in 10.0 mi NNW 4.6 mph - N/A   Overcast
12:52 AM 41.0 °F 35.8 °F 28.4 °F 61% 30.07 in 10.0 mi NNW 8.1 mph - N/A   Overcast
1:12 AM 41.0 °F 36.4 °F 28.4 °F 61% 30.07 in 10.0 mi NNW 6.9 mph - N/A   Overcast
1:32 AM 41.0 °F 36.4 °F 28.4 °F 61% 30.07 in 10.0 mi NW 6.9 mph - N/A   Overcast
1:52 AM 41.0 °F 35.8 °F 28.4 °F 61% 30.08 in 10.0 mi NNW 8.1 mph - N/A   Overcast
2:12 AM 39.2 °F 35.0 °F 28.4 °F 65% 30.08 in 10.0 mi NNW 5.8 mph - N/A   Overcast
2:32 AM 39.2 °F 33.6 °F 30.2 °F 70% 30.09 in 10.0 mi NW 8.1 mph - N/A   Overcast
2:52 AM 37.4 °F 30.8 °F 30.2 °F 75% 30.09 in 10.0 mi NW 9.2 mph - N/A   Scattered Clouds
3:12 AM 35.6 °F 29.9 °F 30.2 °F 81% 30.10 in 10.0 mi NW 6.9 mph - N/A   Clear
3:33 AM 35.6 °F 31.7 °F 28.4 °F 75% 30.10 in 10.0 mi NW 4.6 mph - N/A   Clear
3:53 AM 35.6 °F 30.7 °F 28.4 °F 75% 30.10 in 10.0 mi NW 5.8 mph - N/A   Clear
4:13 AM 33.8 °F 27.7 °F 28.4 °F 81% 30.10 in 10.0 mi NW 6.9 mph - N/A   Clear
4:33 AM 33.8 °F 28.6 °F 28.4 °F 81% 30.10 in 10.0 mi NW 5.8 mph - N/A   Clear
4:53 AM 33.8 °F 29.6 °F 28.4 °F 81% 30.10 in 10.0 mi NW 4.6 mph - N/A   Clear
5:13 AM 32.0 °F 27.5 °F 28.4 °F 87% 30.11 in 10.0 mi NW 4.6 mph - N/A   Clear
5:33 AM 32.0 °F 27.5 °F 28.4 °F 87% 30.11 in 10.0 mi NW 4.6 mph - N/A   Clear
5:53 AM 32.0 °F 26.4 °F 28.4 °F 87% 30.11 in 10.0 mi NW 5.8 mph - N/A   Clear
6:13 AM 32.0 °F 25.6 °F 28.4 °F 87% 30.12 in 10.0 mi NW 6.9 mph - N/A   Clear
6:33 AM 32.0 °F 26.4 °F 28.4 °F 87% 30.13 in 10.0 mi WNW 5.8 mph - N/A   Clear
6:54 AM 32.0 °F 27.5 °F 28.4 °F 87% 30.13 in 10.0 mi WNW 4.6 mph - N/A   Clear
7:14 AM 30.2 °F 25.4 °F 28.4 °F 93% 30.13 in 10.0 mi NW 4.6 mph - N/A   Clear
7:34 AM 30.2 °F 26.7 °F 28.4 °F 93% 30.13 in 10.0 mi NW 3.5 mph - N/A   Clear
7:54 AM 30.2 °F 26.7 °F 28.4 °F 93% 30.13 in 10.0 mi NW 3.5 mph - N/A   Clear
8:14 AM 30.2 °F 26.7 °F 28.4 °F 93% 30.14 in 10.0 mi NW 3.5 mph - N/A   Clear
8:34 AM 30.2 °F 25.4 °F 28.4 °F 93% 30.14 in 10.0 mi NNW 4.6 mph - N/A   Clear
8:54 AM 32.0 °F 28.7 °F 30.2 °F 93% 30.15 in 10.0 mi NNW 3.5 mph - N/A   Clear
9:14 AM 33.8 °F 28.6 °F 30.2 °F 87% 30.15 in 10.0 mi North 5.8 mph - N/A   Clear
9:34 AM 35.6 °F 31.7 °F 30.2 °F 81% 30.15 in 10.0 mi North 4.6 mph - N/A   Clear
9:55 AM 35.6 °F 29.9 °F 32.0 °F 87% 30.16 in 10.0 mi North 6.9 mph - N/A   Clear
10:15 AM 37.4 °F 32.8 °F 32.0 °F 81% 30.16 in 10.0 mi North 5.8 mph - N/A   Clear
10:35 AM 37.4 °F 30.8 °F 32.0 °F 81% 30.17 in 10.0 mi North 9.2 mph - N/A   Clear
10:55 AM 39.2 °F 34.2 °F 32.0 °F 75% 30.17 in 10.0 mi North 6.9 mph - N/A   Clear
11:15 AM 41.0 °F 37.1 °F 30.2 °F 65% 30.17 in 10.0 mi North 5.8 mph - N/A   Clear
11:35 AM 42.8 °F 40.1 °F 30.2 °F 61% 30.16 in 10.0 mi North 4.6 mph - N/A   Clear
11:55 AM 42.8 °F 39.3 °F 30.2 °F 61% 30.16 in 10.0 mi North 5.8 mph - N/A   Clear
12:15 PM 42.8 °F 41.1 °F 30.2 °F 61% 30.15 in 10.0 mi North 3.5 mph - N/A   Clear
12:35 PM 44.6 °F 43.1 °F 30.2 °F 57% 30.16 in 10.0 mi WNW 3.5 mph - N/A   Clear
12:55 PM 44.6 °F 43.1 °F 30.2 °F 57% 30.16 in 10.0 mi NNE 3.5 mph - N/A   Clear
1:16 PM 46.4 °F 44.3 °F 30.2 °F 53% 30.16 in 10.0 mi SW 4.6 mph - N/A   Mostly Cloudy
1:31 PM 46.4 °F 43.5 °F 30.2 °F 53% 30.15 in 10.0 mi WSW 5.8 mph - N/A   Mostly Cloudy
1:51 PM 46.4 °F - 30.2 °F 53% 30.14 in 10.0 mi Calm Calm - N/A   Scattered Clouds
2:11 PM 46.4 °F - 28.4 °F 50% 30.14 in 10.0 mi Calm Calm - N/A   Clear
2:31 PM 46.4 °F 43.5 °F 28.4 °F 50% 30.15 in 10.0 mi WNW 5.8 mph - N/A   Scattered Clouds
2:51 PM 46.4 °F 44.3 °F 30.2 °F 53% 30.13 in 10.0 mi WSW 4.6 mph - N/A   Mostly Cloudy
3:11 PM 46.4 °F - 28.4 °F 50% 30.12 in 10.0 mi Calm Calm - N/A   Scattered Clouds
3:31 PM 46.4 °F 42.4 °F 28.4 °F 50% 30.13 in 10.0 mi West 8.1 mph - N/A   Clear
3:51 PM 46.4 °F 44.3 °F 28.4 °F 50% 30.12 in 10.0 mi WNW 4.6 mph - N/A   Scattered Clouds
4:11 PM 46.4 °F 44.3 °F 28.4 °F 50% 30.12 in 10.0 mi WNW 4.6 mph - N/A   Scattered Clouds
4:32 PM 48.2 °F - 30.2 °F 50% 30.12 in 10.0 mi West 3.5 mph - N/A   Scattered Clouds
4:52 PM 46.4 °F 43.5 °F 30.2 °F 53% 30.11 in 10.0 mi North 5.8 mph - N/A   Scattered Clouds
5:12 PM 46.4 °F 45.2 °F 30.2 °F 53% 30.12 in 10.0 mi NNW 3.5 mph - N/A   Clear
5:32 PM 44.6 °F 43.1 °F 33.8 °F 66% 30.12 in 10.0 mi SSE 3.5 mph - N/A   Scattered Clouds
5:52 PM 44.6 °F - 33.8 °F 66% 30.13 in 10.0 mi Calm Calm - N/A   Mostly Cloudy
6:12 PM 42.8 °F - 32.0 °F 66% 30.13 in 10.0 mi Calm Calm - N/A   Scattered Clouds
6:32 PM 41.0 °F - 32.0 °F 70% 30.13 in 10.0 mi Calm Calm - N/A   Scattered Clouds
6:52 PM 41.0 °F - 32.0 °F 70% 30.13 in 3.0 mi Calm Calm - N/A   Haze
7:12 PM 37.4 °F - 30.2 °F 75% 30.13 in 4.0 mi Calm Calm - N/A   Haze
7:33 PM 37.4 °F - 30.2 °F 75% 30.14 in 10.0 mi Calm Calm - N/A   Scattered Clouds
7:53 PM 39.2 °F 35.9 °F 30.2 °F 70% 30.14 in 10.0 mi NNE 4.6 mph - N/A   Mostly Cloudy
8:13 PM 39.2 °F 35.9 °F 30.2 °F 70% 30.15 in 10.0 mi North 4.6 mph - N/A   Clear
8:33 PM 37.4 °F 33.8 °F 30.2 °F 75% 30.15 in 10.0 mi North 4.6 mph - N/A   Scattered Clouds
8:53 PM 39.2 °F 37.0 °F 30.2 °F 70% 30.15 in 10.0 mi NNW 3.5 mph - N/A   Overcast
9:13 PM 39.2 °F 37.0 °F 30.2 °F 70% 30.15 in 10.0 mi NNW 3.5 mph - N/A   Overcast
9:33 PM 37.4 °F 34.9 °F 30.2 °F 75% 30.15 in 10.0 mi North 3.5 mph - N/A   Mostly Cloudy
9:53 PM 37.4 °F - 30.2 °F 75% 30.15 in 10.0 mi Calm Calm - N/A   Mostly Cloudy
10:13 PM 37.4 °F - 30.2 °F 75% 30.15 in 10.0 mi Calm Calm - N/A   Overcast
10:34 PM 37.4 °F 32.8 °F 30.2 °F 75% 30.15 in 10.0 mi North 5.8 mph - N/A   Overcast
10:54 PM 35.6 °F 32.8 °F 30.2 °F 81% 30.16 in 10.0 mi NNW 3.5 mph - N/A   Overcast
11:14 PM 35.6 °F 31.7 °F 30.2 °F 81% 30.17 in 10.0 mi NNW 4.6 mph - N/A   Overcast
11:34 PM 37.4 °F 31.4 °F 30.2 °F 75% 30.17 in 10.0 mi North 8.1 mph - N/A   Overcast
11:54 PM 37.4 °F 31.4 °F 30.2 °F 75% 30.17 in 10.0 mi North 8.1 mph - N/A   Overcast